H1 CPF  1  COD 2019 03 09 02  5681 glonass126           
H2  1105501 9126    37829 2019 03 08 23 59 42 2019 03 13 23 44 42   900 1 1  0 0 0
H5  1.8735
H9
10 0 58550  86382.000000  0   10995038.690 -10438147.620 -20503325.933
10 0 58551    882.000000  0   13408549.422 -10737183.033 -18848468.163
10 0 58551   1782.000000  0   15570423.474 -11174155.410 -16827259.735
10 0 58551   2682.000000  0   17432634.188 -11706252.613 -14479054.183
10 0 58551   3582.000000  0   18957806.387 -12283613.877 -11849544.000
10 0 58551   4482.000000  0   20120558.054 -12851574.447  -8989867.504
10 0 58551   5382.000000  0   20908349.920 -13353126.018  -5955610.736
10 0 58551   6282.000000  0   21321808.913 -13731488.579  -2805724.054
10 0 58551   7182.000000  0   21374513.393 -13932684.664    398625.162
10 0 58551   8082.000000  0   21092250.626 -13908006.979   3595241.102
10 0 58551   8982.000000  0   20511779.234 -13616275.041   6722106.092
10 0 58551   9882.000000  0   19679149.699 -13025785.430   9718581.502
10 0 58551  10782.000000  0   18647654.585 -12115873.270  12526579.710
10 0 58551  11682.000000  0   17475495.366 -10878019.033  15091684.640
10 0 58551  12582.000000  0   16223264.204  -9316453.844  17364199.515
10 0 58551  13482.000000  0   14951346.443  -7448237.446  19300102.186
10 0 58551  14382.000000  0   13717352.444  -5302804.795  20861890.347
10 0 58551  15282.000000  0   12573685.861  -2920999.345  22019301.098
10 0 58551  16182.000000  0   11565349.513   -353632.147  22749891.849
10 0 58551  17082.000000  0   10728079.886   2340374.705  23039472.038
10 0 58551  17982.000000  0   10086887.595   5096184.595  22882377.841
10 0 58551  18882.000000  0    9655064.282   7845493.357  22281584.785
10 0 58551  19782.000000  0    9433697.114  10519126.796  21248655.950
10 0 58551  20682.000000  0    9411711.130  13049682.433  19803526.280
10 0 58551  21582.000000  0    9566437.791  15374107.175  17974126.384
10 0 58551  22482.000000  0    9864686.258  17436104.836  15795852.069
10 0 58551  23382.000000  0   10264272.907  19188274.032  13310888.740
10 0 58551  24282.000000  0   10715945.259  20593887.776  10567402.617
10 0 58551  25182.000000  0   11165619.685  21628240.582   7618613.430
10 0 58551  26082.000000  0   11556838.719  22279506.566   4521765.854
10 0 58551  26982.000000  0   11833344.077  22549072.345   1337019.255
10 0 58551  27882.000000  0   11941656.141  22451330.463  -1873722.799
10 0 58551  28782.000000  0   11833549.982  22012941.783  -5048020.112
10 0 58551  29682.000000  0   11468321.970  21271597.840  -8124116.465
10 0 58551  30582.000000  0   10814749.641  20274335.435 -11042148.674
10 0 58551  31482.000000  0    9852660.381  19075474.839 -13745319.596
10 0 58551  32382.000000  0    8574040.952  17734269.093 -16181011.332
10 0 58551  33282.000000  0    6983639.451  16312364.133 -18301816.161
10 0 58551  34182.000000  0    5099032.830  14871177.471 -20066464.461
10 0 58551  35082.000000  0    2950155.824  13469306.439 -21440631.206
10 0 58551  35982.000000  0     578309.935  12160075.560 -22397605.201
10 0 58551  36882.000000  0   -1965306.856  10989326.420 -22918808.094
10 0 58551  37782.000000  0   -4621488.862   9993542.910 -22994153.369
10 0 58551  38682.000000  0   -7325251.609   9198390.234 -22622238.678
10 0 58551  39582.000000  0  -10008308.293   8617728.450 -21810368.200
10 0 58551  40482.000000  0  -12601690.941   8253141.083 -20574405.006
10 0 58551  41382.000000  0  -15038407.469   8093997.556 -18938456.637
10 0 58551  42282.000000  0  -17256024.290   8118045.643 -16934400.348
10 0 58551  43182.000000  0  -19199067.401   8292507.788 -14601257.465
10 0 58551  44082.000000  0  -20821142.477   8575633.921 -11984429.247
10 0 58551  44982.000000  0  -22086686.230   8918644.211  -9134809.364
10 0 58551  45882.000000  0  -22972276.850   9267978.807  -6107790.458
10 0 58551  46782.000000  0  -23467449.811   9567758.726  -2962184.402
10 0 58551  47682.000000  0  -23574986.025   9762353.265    240922.424
10 0 58551  48582.000000  0  -23310661.750   9798944.963   3439356.291
10 0 58551  49482.000000  0  -22702471.879   9629983.381   6571062.405
10 0 58551  50382.000000  0  -21789360.251   9215423.751   9575306.670
10 0 58551  51282.000000  0  -20619511.534   8524655.903  12393849.632
10 0 58551  52182.000000  0  -19248276.926   7538041.880  14972070.035
10 0 58551  53082.000000  0  -17735821.238   6247997.323  17260016.600
10 0 58551  53982.000000  0  -16144590.134   4659570.793  19213368.291
10 0 58551  54882.000000  0  -14536703.257   2790496.068  20794285.271
10 0 58551  55782.000000  0  -12971381.883    670714.395  21972134.914
10 0 58551  56682.000000  0  -11502517.862  -1658614.491  22724079.741
10 0 58551  57582.000000  0  -10176484.525  -4146572.740  23035516.638
10 0 58551  58482.000000  0   -9030280.048  -6734356.893  22900359.389
10 0 58551  59382.000000  0   -8090079.935  -9357486.383  22321159.308
10 0 58551  60282.000000  0   -7370258.326 -11948258.000  21309061.520
10 0 58551  61182.000000  0   -6872918.569 -14438345.931  19883597.247
10 0 58551  62082.000000  0   -6587952.401 -16761440.810  18072315.381
10 0 58551  62982.000000  0   -6493625.239 -18855819.197  15910259.392
10 0 58551  63882.000000  0   -6557663.173 -20666737.285  13439298.627
10 0 58551  64782.000000  0   -6738796.227 -22148549.528  10707325.761
10 0 58551  65682.000000  0   -6988693.144 -23266463.791   7767334.962
10 0 58551  66582.000000  0   -7254206.252 -23997859.376   4676397.915
10 0 58551  67482.000000  0   -7479831.515 -24333112.289   1494557.107
10 0 58551  68382.000000  0   -7610279.351 -24275892.593  -1716342.175
10 0 58551  69282.000000  0   -7593046.761 -23842920.830  -4893858.137
10 0 58551  70182.000000  0   -7380880.823 -23063193.373  -7976172.987
10 0 58551  71082.000000  0   -6934027.939 -21976709.134 -10903303.133
10 0 58551  71982.000000  0   -6222172.163 -20632751.273 -13618274.506
10 0 58551  72882.000000  0   -5225978.998 -19087796.556 -16068239.240
10 0 58551  73782.000000  0   -3938177.817 -17403140.807 -18205511.154
10 0 58551  74682.000000  0   -2364135.712 -15642340.937 -19988499.187
10 0 58551  75582.000000  0    -521897.163 -13868581.655 -21382520.279
10 0 58551  76482.000000  0    1558313.390 -12142077.927 -22360475.704
10 0 58551  77382.000000  0    3835106.194 -10517622.513 -22903377.768
10 0 58551  78282.000000  0    6257416.404  -9042381.445 -23000716.880
10 0 58551  79182.000000  0    8766408.192  -7754029.552 -22650662.229
10 0 58551  80082.000000  0   11297713.673  -6679303.569 -21860092.554
10 0 58551  80982.000000  0   13783913.574  -5833032.542 -20644456.819
10 0 58551  81882.000000  0   16157156.532  -5217684.984 -19027467.853
10 0 58551  82782.000000  0   18351808.009  -4823450.432 -17040635.219
10 0 58551  83682.000000  0   20307018.693  -4628850.471 -14722646.662
10 0 58551  84582.000000  0   21969105.605  -4601852.007 -12118610.357
10 0 58551  85482.000000  0   23293646.954  -4701434.484  -9279172.985
10 0 58551  86382.000000  0   24247203.844  -4879543.600  -6259530.991
10 0 58552    882.000000  0   24808597.579  -5083347.913  -3118354.561
10 0 58552   1782.000000  0   24969689.988  -5257702.078     83354.441
10 0 58552   2682.000000  0   24735635.129  -5347711.835   3283448.076
10 0 58552   3582.000000  0   24124592.804  -5301291.817   6419838.182
10 0 58552   4482.000000  0   23166916.965  -5071607.719   9431698.867
10 0 58552   5382.000000  0   21903853.848  -4619299.420  12260642.302
10 0 58552   6282.000000  0   20385805.103  -3914391.043  14851845.225
10 0 58552   7182.000000  0   18670229.341  -2937807.331  17155104.679
10 0 58552   8082.000000  0   16819269.897  -1682432.203  19125803.171
10 0 58552   8982.000000  0   14897207.914   -153664.565  20725765.357
10 0 58552   9882.000000  0   12967846.692   1630552.577  21923990.488
10 0 58552  10782.000000  0   11091935.645   3640231.965  22697247.375
10 0 58552  11682.000000  0    9324740.407   5834351.238  23030521.087
10 0 58552  12582.000000  0    7713859.325   8162330.785  22917303.303
10 0 58552  13482.000000  0    6297376.263  10565920.411  22359720.954
10 0 58552  14382.000000  0    5102425.760  12981418.050  21368500.576
10 0 58552  15282.000000  0    4144229.574  15342129.888  19962768.605
10 0 58552  16182.000000  0    3425644.266  17580971.076  18169690.733
10 0 58552  17082.000000  0    2937238.326  19633100.077  16023956.253
10 0 58552  17982.000000  0    2657895.484  21438477.726  13567116.283
10 0 58552  18882.000000  0    2555918.838  22944244.803  10846787.514
10 0 58552  19782.000000  0    2590589.393  24106818.885   7915735.886
10 0 58552  20682.000000  0    2714113.394  24893622.462   4830857.230
10 0 58552  21582.000000  0    2873876.098  25284369.377   1652074.184
10 0 58552  22482.000000  0    3014906.411  25271854.881  -1558829.288
10 0 58552  23382.000000  0    3082447.502  24862215.327  -4739412.812
10 0 58552  24282.000000  0    3024523.641  24074645.904  -7827799.947
10 0 58552  25182.000000  0    2794393.401  22940587.713 -10763889.425
10 0 58552  26082.000000  0    2352783.968  21502418.104 -13490532.752
10 0 58552  26982.000000  0    1669810.490  19811699.307 -15954654.316
10 0 58552  27882.000000  0     726497.730  17927059.153 -18108291.405
10 0 58552  28782.000000  0    -484161.744  15911793.315 -19909533.176
10 0 58552  29682.000000  0   -1956658.893  13831290.150 -21323339.926
10 0 58552  30582.000000  0   -3672953.452  11750386.537 -22322226.538
10 0 58552  31482.000000  0   -5602994.754   9730765.842 -22886796.852
10 0 58552  32382.000000  0   -7705757.202   7828506.984 -23006118.803
10 0 58552  33282.000000  0   -9930747.690   6091886.934 -22677933.397
10 0 58552  34182.000000  0  -12219922.394   4559528.047 -21908693.849
10 0 58552  35082.000000  0  -14509933.206   3258966.828 -20713434.541
10 0 58552  35982.000000  0  -16734610.229   2205702.817 -19115472.708
10 0 58552  36882.000000  0  -18827576.841   1402766.009 -17145948.964
99